Moses Lake, WA
on Thursday, December 20, 2012

Thursday
Previous Day Next Day
Daily Summary
 ActualAverageRecord
Temperature
Mean Temperature °F 28°F  
Max Temperature 48°F 34°F 51°F (1996)
Min Temperature 35°F 22°F -6°F (1984)
Degree Days
Heating Degree Days 23 37  
Month to date heating degree days 565 714  
Since 1 July heating degree days 1833 2175  
Cooling Degree Days 0 0  
Month to date cooling degree days 0 0  
Year to date cooling degree days 719 615  
Moisture
Dew Point 26°F   
Average Humidity 57    
Maximum Humidity 75    
Minimum Humidity 39    
Precipitation
Precipitation 0.00 in 0.06 in 0.20 in (1982)
Month to date precipitation 1.31 0.83  
Year to date precipitation 9.05 8.50  
Wind
Wind Speed 13 mph   
Max Wind Speed 24 mph   
Max Gust Speed 31 mph   
Visibility 10 miles   
Events     

Key: T is trace of precipitation, MM is missing value
Source: NWS Daily Summary
Time(PST)TemperatureDew PointHumidity Pressure Visibility Wind DirectionWind SpeedGust SpeedPrecipitationEvents Conditions
12:52 AM 37.0°F 26.1°F 65% 29.79 in 10.0 miles SE 18.4 mph - N/A   Overcast
1:52 AM 37.4°F 26.6°F 65% 29.74 in 10.0 miles SSE 18.4 mph - N/A   Overcast
2:52 AM 39.0°F 26.1°F 60% 29.76 in 10.0 miles SE 21.9 mph 27.6 mph N/A   Overcast
3:52 AM 37.9°F 26.1°F 62% 29.76 in 10.0 miles SSE 15.0 mph - N/A   Overcast
4:52 AM 39.0°F 26.1°F 60% 29.74 in 10.0 miles ESE 17.3 mph - N/A   Overcast
5:52 AM 39.0°F 25.0°F 57% 29.73 in 10.0 miles SE 16.1 mph - N/A   Overcast
6:52 AM 39.0°F 24.1°F 55% 29.72 in 10.0 miles SE 13.8 mph - N/A   Overcast
7:52 AM 39.0°F 24.1°F 55% 29.70 in 10.0 miles SE 16.1 mph - N/A   Overcast
8:52 AM 39.9°F 24.1°F 53% 29.69 in 10.0 miles SSE 19.6 mph 25.3 mph N/A   Overcast
9:52 AM 41.0°F 24.1°F 51% 29.69 in 10.0 miles SSE 20.7 mph - N/A   Overcast
10:52 AM 43.0°F 25.0°F 49% 29.68 in 10.0 miles SSE 18.4 mph 27.6 mph N/A   Overcast
11:52 AM 45.0°F 25.0°F 46% 29.67 in 10.0 miles SSE 20.7 mph 28.8 mph N/A   Overcast
12:52 PM 46.9°F 24.1°F 41% 29.66 in 10.0 miles SSE 19.6 mph 27.6 mph N/A   Overcast
1:52 PM 48.0°F 25.0°F 41% 29.68 in 10.0 miles South 13.8 mph - N/A   Overcast
2:52 PM 46.9°F 26.1°F 44% 29.70 in 10.0 miles SSW 8.1 mph - N/A   Overcast
3:52 PM 45.0°F 27.0°F 49% 29.72 in 10.0 miles SW 9.2 mph - N/A   Overcast
4:52 PM 42.1°F 28.0°F 58% 29.74 in 10.0 miles SSW 10.4 mph - N/A   Overcast
5:52 PM 41.0°F 28.0°F 60% 29.77 in 10.0 miles SW 5.8 mph - N/A   Overcast
6:52 PM 37.9°F 28.0°F 68% 29.80 in 10.0 miles SSW 5.8 mph - N/A   Overcast
7:52 PM 37.9°F 28.9°F 70% 29.81 in 10.0 miles SSW 5.8 mph - N/A   Overcast
8:52 PM 36.0°F 28.9°F 76% 29.83 in 10.0 miles South 5.8 mph - N/A   Overcast
9:52 PM 37.0°F 28.9°F 73% 29.84 in 10.0 miles South 5.8 mph - N/A   Overcast
10:52 PM 39.0°F 28.9°F 67% 29.86 in 10.0 miles SSW 5.8 mph - N/A   Overcast
11:52 PM 37.0°F 28.9°F 73% 29.86 in 10.0 miles South 4.6 mph - N/A   Mostly Cloudy
Moon Phase
Dec. 20 Dec. 28 Jan. 04 Jan. 11 Jan. 18
Sunrise:07:40 AM (PST) Moon Rise:11:49 AM (PST)
Sunset:04:09 PM (PST) Moon Set:12:11 AM (PST)

Copyright © 2014 The Weather Underground, Inc.